Mackinac Island, MI

11:47 PM EDT on April 24, 2017 (GMT -0400)
Mackinac Island

Weather History for KMCD - July, 2014

Change the Weather History Date:

Monday, July 28, 2014

  Actual Average Record
Temperature  
Mean Temperature 58 °F -  
Max Temperature 65 °F 72 °F 87 °F (2015)
Min Temperature 50 °F 58 °F 33 °F (2007)
Degree Days  
Heating Degree Days 8    
Growing Degree Days 8 (Base 50)    
Moisture  
Dew Point 48 °F    
Average Humidity 71    
Maximum Humidity 92    
Minimum Humidity 48    
Precipitation  
Precipitation 0.01 in - - ()
Sea Level Pressure  
Sea Level Pressure 29.97 in    
Wind  
Wind Speed 9 mph (North)    
Max Wind Speed 15 mph    
Max Gust Speed 24 mph    
Visibility 10 miles    
Events      
Averages and records for this station are not official NWS values.
T = Trace of Precipitation, MM = Missing Value Source: NWS Daily Summary

Daily Weather History Graph

Daily Weather History Graph

Search for Another Location

Airport or City:

Trip Planner

Search our weather history database for the weather conditions in past years. The results will help you decide how hot, cold, wet, or windy it might be!

Date:

Astronomy

Jul. 28, 2014 Rise Set
Actual Time 6:16 AM EDT 9:12 PM EDT
Civil Twilight 5:41 AM EDT 9:47 PM EDT
Nautical Twilight 4:56 AM EDT 10:32 PM EDT
Astronomical Twilight 4:03 AM EDT 11:25 PM EDT
Moon 8:05 AM EDT (7/28) 9:43 PM EDT (7/28)
Length of Visible Light 16h 05m
Length of Day
14h 55m
Waxing Crescent, 3% of the Moon is Illuminated
Jul 28
Waxing Crescent
Aug 3
First Quarter
Aug 10
Full
Aug 17
Last Quarter
Aug 25
New

Hourly Weather History & Observations

Time (EDT) Temp. Dew Point Humidity Pressure Visibility Wind Dir Wind Speed Gust Speed Precip Events Conditions
12:17 AM 57.2 °F 53.8 °F 88% 29.87 in 10.0 mi North 10.4 mph - N/A   Scattered Clouds
12:57 AM 57.2 °F 54.0 °F 89% 29.88 in 10.0 mi North 9.2 mph 17.3 mph N/A   Overcast
1:17 AM 57.2 °F 53.8 °F 88% 29.88 in 10.0 mi North 8.1 mph 16.1 mph N/A   Mostly Cloudy
1:38 AM 56.8 °F 53.6 °F 89% 29.89 in 10.0 mi North 8.1 mph - N/A   Overcast
1:57 AM 57.0 °F 53.4 °F 88% 29.89 in 10.0 mi North 8.1 mph - N/A   Overcast
2:18 AM 56.5 °F 53.1 °F 88% 29.89 in 10.0 mi North 8.1 mph - N/A   Overcast
2:38 AM 55.6 °F 52.5 °F 89% 29.89 in 10.0 mi North 8.1 mph - N/A   Scattered Clouds
2:57 AM 55.0 °F 52.2 °F 90% 29.88 in 10.0 mi NNE 8.1 mph - N/A   Clear
3:18 AM 54.7 °F 51.6 °F 89% 29.89 in 10.0 mi NNE 13.8 mph 17.3 mph N/A   Clear
3:38 AM 54.0 °F 51.1 °F 90% 29.89 in 10.0 mi NNE 10.4 mph 17.3 mph N/A   Clear
4:18 AM 52.7 °F 50.5 °F 92% 29.90 in 10.0 mi North 10.4 mph - N/A   Clear
4:38 AM 52.3 °F 49.3 °F 89% 29.91 in 10.0 mi North 11.5 mph 17.3 mph N/A   Clear
4:57 AM 52.2 °F 48.2 °F 86% 29.92 in 10.0 mi NNE 12.7 mph 21.9 mph N/A   Clear
5:18 AM 51.8 °F 47.8 °F 86% 29.92 in 10.0 mi NNE 15.0 mph 24.2 mph N/A   Clear
5:38 AM 51.3 °F 47.3 °F 86% 29.93 in 10.0 mi NNE 12.7 mph - N/A   Clear
5:57 AM 50.9 °F 46.6 °F 85% 29.94 in 10.0 mi North 11.5 mph 17.3 mph N/A   Clear
6:18 AM 50.2 °F 45.7 °F 85% 29.95 in 10.0 mi North 10.4 mph 19.6 mph N/A   Scattered Clouds
6:38 AM 50.0 °F 45.0 °F 83% 29.95 in 10.0 mi North 10.4 mph - N/A   Clear
6:58 AM 50.4 °F 43.9 °F 78% 29.96 in 10.0 mi North 13.8 mph 19.6 mph N/A   Clear
7:18 AM 50.5 °F 43.9 °F 78% 29.96 in 10.0 mi North 12.7 mph 18.4 mph N/A   Clear
7:37 AM 50.7 °F 44.1 °F 78% 29.97 in 10.0 mi North 10.4 mph 17.3 mph N/A   Clear
7:58 AM 50.9 °F 44.4 °F 78% 29.98 in 10.0 mi North 10.4 mph 17.3 mph N/A   Clear
8:18 AM 51.1 °F 43.7 °F 76% 29.99 in 10.0 mi North 9.2 mph 16.1 mph N/A   Clear
8:37 AM 52.2 °F 43.7 °F 73% 29.99 in 10.0 mi North 11.5 mph 17.3 mph N/A   Scattered Clouds
8:58 AM 52.9 °F 44.2 °F 72% 30.00 in 10.0 mi NNE 10.4 mph 16.1 mph N/A   Mostly Cloudy
9:18 AM 53.2 °F 44.2 °F 72% 30.00 in 10.0 mi NNE 12.7 mph 17.3 mph N/A   Overcast
9:37 AM 53.6 °F 44.2 °F 71% 30.01 in 10.0 mi NNE 9.2 mph - N/A   Overcast
9:58 AM 54.0 °F 44.6 °F 71% 30.01 in 10.0 mi North 8.1 mph - N/A   Overcast
10:38 AM 57.0 °F 45.5 °F 65% 30.01 in 10.0 mi North 9.2 mph - N/A   Mostly Cloudy
10:58 AM 56.7 °F 45.7 °F 67% 30.01 in 10.0 mi North 9.2 mph - N/A   Overcast
11:17 AM 56.3 °F 46.6 °F 70% 30.02 in 10.0 mi NNW 4.6 mph - N/A   Overcast
11:38 AM 57.2 °F 46.6 °F 68% 30.02 in 10.0 mi North 9.2 mph - N/A   Overcast
11:58 AM 58.3 °F 46.9 °F 66% 30.02 in 10.0 mi North 10.4 mph - N/A   Overcast
12:18 PM 59.4 °F 46.4 °F 62% 30.01 in 10.0 mi North 12.7 mph - N/A   Overcast
12:38 PM 59.5 °F 46.0 °F 61% 30.02 in 10.0 mi North 8.1 mph - N/A   Overcast
12:58 PM 59.9 °F 46.6 °F 61% 30.01 in 10.0 mi North 8.1 mph - N/A   Overcast
1:18 PM 61.2 °F 46.9 °F 60% 30.00 in 10.0 mi NNE 8.1 mph - N/A   Mostly Cloudy
1:38 PM 62.6 °F 46.6 °F 56% 30.00 in 10.0 mi North 9.2 mph 16.1 mph N/A   Mostly Cloudy
1:58 PM 63.5 °F 47.1 °F 55% 30.00 in 10.0 mi NNE 9.2 mph - N/A   Mostly Cloudy
2:18 PM 63.9 °F 46.6 °F 53% 30.00 in 10.0 mi North 12.7 mph 17.3 mph N/A   Scattered Clouds
2:38 PM 64.0 °F 45.5 °F 51% 29.99 in 10.0 mi North 12.7 mph 20.7 mph N/A   Clear
2:58 PM 64.9 °F 46.2 °F 51% 29.99 in 10.0 mi North 8.1 mph - N/A   Clear
3:18 PM 64.9 °F 46.4 °F 51% 30.00 in 10.0 mi North 11.5 mph - N/A   Clear
3:38 PM 65.1 °F 46.0 °F 50% 30.00 in 10.0 mi North 10.4 mph 16.1 mph N/A   Clear
4:18 PM 65.8 °F 46.0 °F 49% 30.00 in 10.0 mi North 11.5 mph 17.3 mph N/A   Scattered Clouds
4:37 PM 65.7 °F 46.6 °F 50% 29.99 in 10.0 mi North 11.5 mph 16.1 mph N/A   Scattered Clouds
4:58 PM 65.8 °F 45.9 °F 48% 29.99 in 10.0 mi North 11.5 mph - N/A   Scattered Clouds
5:18 PM 65.8 °F 46.9 °F 50% 29.99 in 10.0 mi North 10.4 mph 16.1 mph N/A   Scattered Clouds
5:38 PM 65.7 °F 47.1 °F 51% 29.98 in 10.0 mi North 9.2 mph - N/A   Clear
5:58 PM 65.5 °F 47.5 °F 52% 29.98 in 10.0 mi North 6.9 mph - N/A   Clear
6:18 PM 65.7 °F 48.4 °F 54% 29.98 in 10.0 mi North 8.1 mph - N/A   Clear
6:38 PM 65.1 °F 48.2 °F 54% 29.98 in 10.0 mi North 9.2 mph - N/A   Clear
6:58 PM 64.8 °F 49.1 °F 57% 29.98 in 10.0 mi North 8.1 mph - N/A   Clear
7:18 PM 64.2 °F 49.3 °F 58% 29.98 in 10.0 mi North 4.6 mph - N/A   Scattered Clouds
7:38 PM 64.4 °F 50.0 °F 59% 29.98 in 10.0 mi NW 3.5 mph - N/A   Clear
7:58 PM 62.8 °F 50.7 °F 65% 29.98 in 10.0 mi NW 4.6 mph - N/A   Scattered Clouds
8:18 PM 62.8 °F 51.8 °F 67% 29.97 in 10.0 mi NW 6.9 mph - N/A   Scattered Clouds
8:38 PM 61.2 °F 50.4 °F 68% 29.97 in 10.0 mi NW 8.1 mph - N/A   Clear
8:58 PM 60.3 °F 49.8 °F 68% 29.97 in 10.0 mi NW 5.8 mph - N/A   Clear
9:17 PM 59.9 °F 50.0 °F 70% 29.98 in 10.0 mi NW 6.9 mph - N/A   Clear
9:58 PM 59.2 °F 50.0 °F 72% 29.98 in 10.0 mi WNW 3.5 mph - N/A   Scattered Clouds
10:18 PM 58.6 °F 50.4 °F 74% 29.98 in 10.0 mi WNW 3.5 mph - N/A   Scattered Clouds
10:58 PM 56.5 °F 50.7 °F 81% 29.97 in 10.0 mi West 4.6 mph - N/A   Clear
11:18 PM 55.9 °F 50.9 °F 83% 29.96 in 10.0 mi West 4.6 mph - N/A   Clear
11:38 PM 56.3 °F 50.7 °F 82% 29.96 in 10.0 mi West 3.5 mph - N/A   Clear
11:57 PM 55.2 °F 50.4 °F 84% 29.96 in 10.0 mi West 4.6 mph - N/A   Clear